Lapse_Rate
4.4 4.4 4.6 4.7 4.8 4.9 4.8 4.7 4.8 4.8 4.2 3.1 2.5 2.3 2.1 1.9 2.0 3.4 3.2 2.9 3.1 3.3 3.2 3.3 3.8 3.5 3.5 3.8 4.1 3.9 3.1 2.4 2.5 2.9 4.1 4.8 5.8 6.5 6.5 6.3 6.3 6.0 5.5 5.9 6.2
4.6 4.8 5.0 5.3 5.4 5.3 5.1 5.1 4.9 4.7 3.9 3.2 2.6 2.2 2.2 1.9 2.2 2.9 3.1 3.1 3.3 3.4 3.6 3.6 3.6 3.5 3.3 3.5 4.2 4.1 3.6 2.6 4.2 4.8 5.1 5.1 5.5 6.3 6.3 6.2 6.3 6.0 5.7 5.9 5.9
4.9 5.2 5.4 5.4 5.4 5.4 5.4 5.1 4.7 4.2 3.7 3.1 2.5 2.2 2.2 2.2 3.3 3.5 2.7 2.6 3.0 2.9 3.3 3.5 3.6 3.3 3.3 4.0 5.1 5.4 4.7 6.1 5.3 4.8 4.9 5.0 5.4 6.0 6.3 6.0 6.5 6.6 5.9 6.0 6.0
5.3 5.4 5.6 5.6 5.6 5.7 5.3 5.0 4.7 4.4 4.1 3.1 2.5 2.3 2.3 2.4 2.9 2.9 2.4 2.7 2.9 2.8 2.9 3.3 3.7 3.8 3.7 4.5 5.6 5.3 5.5 5.8 4.9 4.9 4.9 4.7 5.0 5.9 6.0 6.2 6.7 6.8 6.2 5.9 6.0
5.4 5.5 5.8 5.7 5.6 5.4 5.4 5.0 4.7 4.4 4.2 3.2 2.4 2.1 2.3 2.4 3.5 2.8 2.8 2.8 2.7 3.0 3.1 3.5 3.8 4.6 4.4 5.3 5.7 5.2 5.9 5.3 4.9 4.9 4.9 5.0 4.7 5.1 6.2 5.9 6.7 6.7 6.3 5.8 6.0
5.5 5.7 5.8 5.8 5.5 5.6 5.3 5.1 4.8 4.4 4.1 3.8 3.0 2.6 2.2 2.3 2.9 2.7 3.1 3.2 3.4 3.2 3.3 3.8 4.8 4.5 4.7 5.0 5.2 5.1 4.9 5.1 5.1 5.0 5.0 4.9 4.6 5.3 6.3 6.2 6.5 6.4 6.5 6.1 6.1
5.4 5.6 5.7 5.7 5.5 5.5 5.2 5.0 4.7 4.6 4.0 4.0 3.6 3.1 2.1 2.9 2.5 2.9 3.0 3.4 3.6 4.0 4.3 5.4 5.5 4.8 4.9 5.1 5.2 5.3 5.2 5.3 5.4 5.4 5.2 5.6 5.2 5.0 6.4 6.3 6.2 6.5 6.4 6.1 6.0
5.4 5.7 5.7 5.7 5.6 5.3 5.1 4.9 4.6 4.3 3.9 4.1 3.6 2.7 2.1 2.3 2.6 3.2 3.4 3.7 4.0 4.5 5.6 6.0 4.6 4.5 4.7 4.9 5.1 5.4 5.2 5.1 5.6 5.8 5.6 5.8 5.0 5.4 5.4 5.8 6.5 6.6 6.5 6.4 6.0
5.4 5.5 5.8 5.7 5.4 5.0 5.0 4.8 4.4 4.3 3.9 3.9 3.6 2.4 1.9 2.2 2.5 2.8 3.3 3.6 4.3 4.8 5.5 5.4 4.8 4.7 4.5 4.5 4.7 4.9 4.9 5.3 5.4 6.0 5.9 5.9 4.8 5.6 6.1 6.0 6.2 6.7 6.7 6.4 6.4
5.4 5.6 5.6 5.4 5.3 4.8 4.9 4.6 4.4 4.0 3.5 3.2 1.7 1.9 1.9 2.2 2.6 2.7 3.3 4.4 4.7 5.6 6.0 5.9 5.5 5.1 5.0 4.6 4.6 4.9 4.8 5.0 5.1 5.8 6.0 6.2 5.2 5.7 6.2 6.4 6.2 6.7 6.8 6.8 6.5
5.4 5.5 5.4 5.3 5.2 4.9 4.5 4.2 3.8 2.9 1.5 1.8 1.4 1.6 1.4 2.4 2.9 3.3 3.8 5.3 5.4 5.8 5.8 5.6 5.0 5.2 5.2 5.3 5.0 4.7 5.1 4.9 5.1 5.7 5.8 5.6 5.2 5.8 5.8 5.9 6.0 6.2 6.8 6.8 6.6
5.5 5.3 5.2 5.1 5.1 4.7 4.3 4.1 3.5 2.9 2.1 1.4 1.3 1.7 2.1 2.9 3.8 3.9 4.9 5.7 6.1 5.8 5.6 5.5 5.4 5.6 5.2 5.3 5.3 5.4 5.3 5.3 5.6 6.2 5.6 5.4 5.6 5.7 5.7 5.7 5.8 6.3 6.4 6.4 6.4
5.6 5.4 5.3 5.1 5.0 4.6 4.0 3.8 3.4 3.0 2.1 1.8 1.9 2.4 2.8 3.2 3.7 4.1 5.4 6.0 6.3 6.4 6.1 6.1 6.2 5.8 5.7 5.5 5.8 6.0 6.0 5.8 5.7 6.0 5.8 6.3 5.6 5.9 6.0 5.8 5.9 6.1 6.7 6.7 6.0
5.5 5.3 5.0 4.9 4.7 4.4 4.1 3.6 3.2 2.9 1.5 1.6 2.1 2.6 3.0 3.5 4.0 4.6 5.6 6.6 6.6 6.5 6.4 6.6 6.4 6.3 6.0 6.4 6.2 6.3 6.7 6.4 6.4 6.0 5.9 6.1 5.1 6.1 5.9 6.2 6.2 6.0 6.0 6.8 6.6
5.3 5.1 4.8 4.8 4.1 3.8 3.6 3.3 3.0 2.7 0.7 2.2 2.4 2.7 3.3 3.4 4.1 4.8 6.1 6.6 6.9 6.8 6.4 6.9 7.0 6.9 7.1 6.9 6.6 6.8 7.2 6.9 6.9 6.8 6.3 6.3 5.3 5.3 6.3 6.2 6.9 6.0 6.4 6.3 6.7
5.0 4.8 4.3 3.9 3.4 3.3 2.9 2.9 2.8 2.5 0.6 2.5 2.7 2.8 3.1 3.8 4.7 5.7 6.7 6.9 7.1 6.9 7.1 7.0 7.3 7.1 7.3 7.3 7.0 6.5 6.8 7.5 7.6 7.4 5.5 6.3 6.8 5.7 6.5 6.5 6.5 7.0 6.5 6.5 6.5
5.1 4.5 4.1 3.5 3.3 3.1 2.7 2.7 2.6 2.3 2.3 2.4 2.8 2.9 3.2 4.3 5.4 6.4 6.9 7.3 7.1 6.9 7.1 7.4 7.6 7.4 7.3 7.6 7.7 7.3 7.2 4.9 5.5 6.2 4.6 7.2 6.7 5.8 6.7 7.2 7.0 6.8 7.0 7.0 6.8
5.2 4.6 3.9 3.7 3.0 2.7 2.4 2.5 2.4 2.3 2.3 2.4 2.6 3.2 3.6 4.5 5.8 6.6 6.9 7.2 7.3 7.1 7.0 6.9 7.2 7.3 7.2 7.4 7.4 7.5 7.3 6.5 5.5 4.7 6.0 7.8 5.9 6.2 7.1 6.8 6.7 6.8 6.8 6.8 7.1
4.9 5.0 4.1 3.4 2.9 2.3 2.2 2.2 2.4 2.2 2.2 2.3 2.5 3.0 4.2 5.1 6.1 6.6 7.0 7.2 7.1 7.0 7.1 7.1 7.0 7.2 7.3 7.7 7.7 7.4 7.3 7.2 7.2 6.9 6.5 6.4 6.2 6.3 6.8 7.3 7.2 6.7 6.8 7.1 7.3
4.5 4.7 3.8 3.2 2.7 2.2 2.2 2.3 2.4 2.2 2.3 2.5 2.7 3.2 3.8 5.3 6.1 6.6 7.0 7.3 7.4 7.3 7.1 7.0 7.0 7.1 7.4 7.5 7.7 7.6 7.4 7.3 7.2 5.4 6.4 6.6 6.5 6.4 7.0 7.2 7.3 7.2 6.7 6.7 6.7
4.4 4.1 3.6 3.0 2.7 2.2 2.0 2.3 2.7 2.5 2.6 2.6 2.9 3.3 4.4 4.9 6.2 6.5 6.9 7.4 7.4 7.3 7.2 7.1 7.0 7.1 7.2 7.4 7.2 7.2 7.3 7.3 7.3 7.6 7.7 7.4 7.7 7.0 6.4 6.2 6.4 6.3 6.4 6.8 7.2
4.2 3.9 3.6 3.2 2.3 1.8 1.8 2.3 2.5 2.9 2.9 3.0 3.2 3.8 4.7 5.1 6.0 6.4 6.8 7.1 7.4 7.3 7.1 7.1 7.2 7.0 7.3 7.3 7.4 7.3 7.5 7.5 7.3 7.3 7.1 7.0 6.8 8.0 7.8 6.3 6.1 6.3 6.8 6.6 6.6
4.2 3.9 3.5 2.7 1.8 1.6 1.7 2.3 2.0 2.6 3.0 2.8 3.3 4.1 4.3 5.2 5.7 6.4 6.7 7.2 7.0 7.0 7.0 7.0 7.1 7.1 7.4 7.7 7.5 7.5 7.7 7.8 7.4 7.2 6.8 7.1 7.2 7.1 6.6 6.4 6.2 6.4 6.5 6.7 6.8
4.0 3.5 3.3 2.6 2.1 1.6 1.3 2.1 2.3 2.6 2.7 2.9 3.4 4.2 4.3 5.4 6.1 6.2 6.5 6.8 7.0 7.0 7.0 6.8 6.8 7.2 6.6 7.7 7.4 7.4 7.6 7.6 7.3 6.6 6.7 7.0 7.0 8.0 6.2 6.9 6.8 6.8 7.0 6.8 6.9
4.2 3.5 3.5 3.2 2.5 1.8 1.1 1.8 2.0 2.5 2.6 2.9 3.3 4.6 4.6 5.0 6.1 6.2 6.8 7.1 6.9 7.1 7.0 7.0 6.9 6.9 7.2 7.2 7.1 7.3 7.4 7.3 7.2 6.9 6.6 7.2 7.0 7.1 6.2 6.2 6.2 6.5 6.4 6.2 6.6
4.2 3.8 2.9 3.3 2.7 1.7 1.3 2.0 2.4 2.5 2.7 2.8 3.2 4.2 4.7 5.5 6.4 6.2 6.5 7.1 7.3 7.3 7.2 7.1 6.9 6.9 7.0 7.2 7.0 7.0 7.2 7.1 7.1 6.7 6.9 7.0 6.8 6.6 6.5 6.5 6.5 6.6 6.5 6.3 5.9
4.0 3.5 2.8 3.0 2.5 1.3 2.5 2.6 2.4 2.1 2.8 3.3 3.3 3.7 4.8 5.8 6.0 6.5 6.5 6.8 7.2 7.1 7.0 7.1 7.0 7.1 7.0 6.9 6.9 7.0 7.6 7.5 7.6 7.4 7.2 7.1 6.8 6.6 6.5 6.4 6.4 6.6 6.7 6.2 5.1
Wind_Speed
23 25 26 26 26 26 27 26 26 26 25 26 25 23 21 19 23 7 11 12 9 18 15 9 7 6 4 4 6 4 10 21 24 17 11 4 9 4 3 5 3 4 1 7 18
24 26 26 27 27 27 28 29 28 27 27 27 27 24 16 14 9 16 16 12 15 14 8 8 6 4 4 5 5 11 15 30 18 18 7 15 14 2 4 6 7 3 2 7 19
27 27 27 28 28 28 28 28 29 29 29 28 26 24 9 2 5 7 5 12 8 8 1 2 7 4 7 6 7 9 26 23 17 17 14 12 19 4 7 14 8 5 2 8 15
28 28 28 29 29 29 26 29 30 28 27 27 27 23 14 5 9 1 9 14 10 10 3 4 2 5 8 11 16 16 22 25 16 8 5 12 15 21 12 16 6 5 3 10 17
29 29 29 27 26 26 26 26 28 29 25 26 23 8 9 5 11 7 11 10 8 5 2 3 4 5 13 5 10 20 25 12 13 13 18 17 18 8 15 8 9 6 6 12 18
28 27 26 24 26 24 26 27 27 24 24 23 18 22 4 9 2 1 1 8 3 2 4 2 4 5 7 7 11 8 15 16 13 15 18 16 19 15 27 11 13 10 9 11 18
26 25 26 24 24 26 26 27 27 25 26 27 22 9 7 12 2 14 12 9 10 12 12 9 5 4 5 7 8 6 11 15 18 13 11 10 21 28 28 16 18 8 8 8 17
28 26 26 25 24 24 24 26 19 19 18 15 9 4 5 2 9 12 9 6 11 11 13 12 8 6 5 7 7 7 7 13 11 20 20 13 23 21 10 14 17 10 9 10 14
28 27 26 24 22 22 21 8 12 15 16 13 7 3 5 2 4 7 4 3 8 4 3 9 3 3 4 5 7 5 8 15 13 11 12 20 26 20 12 12 14 12 10 11 9
29 27 25 23 21 21 15 10 5 4 5 8 4 1 2 3 5 7 7 6 3 5 7 4 4 6 5 7 9 8 8 13 14 5 6 13 25 15 11 9 17 14 9 12 13
30 27 24 21 19 12 1 0 1 1 2 3 5 5 2 4 4 5 5 7 3 1 4 6 5 6 9 12 15 15 17 17 14 14 14 11 20 15 15 13 13 12 7 9 11
31 26 21 16 4 8 2 2 3 1 4 4 5 6 6 1 5 8 3 5 4 5 1 3 12 15 13 12 14 16 17 14 12 7 8 12 23 15 12 17 13 12 14 10 7
29 21 15 4 2 5 3 2 3 3 1 3 3 3 5 5 3 5 4 5 6 3 5 6 5 14 7 9 12 13 10 12 15 12 8 12 19 13 11 18 16 18 15 12 11
23 20 7 8 4 3 3 3 6 3 1 3 1 3 1 3 4 6 5 5 1 3 2 5 6 6 2 5 6 6 5 5 8 5 3 6 7 7 3 9 14 18 15 13 14
18 19 16 12 4 2 5 7 5 2 4 3 1 1 5 2 6 2 3 1 5 6 1 5 5 4 6 5 1 6 5 8 6 6 4 8 4 6 6 12 15 12 11 8 10
15 15 11 4 2 4 8 5 3 5 3 3 2 3 4 3 3 5 2 2 4 3 4 7 3 3 3 4 2 4 3 5 2 3 5 12 8 3 6 10 8 11 10 9 9
17 12 7 6 3 9 7 3 4 5 2 4 3 4 4 3 4 2 3 4 2 4 4 5 3 3 1 4 5 5 4 3 5 1 5 7 6 15 15 16 14 16 15 10 9
13 10 9 9 11 9 3 4 5 3 3 2 3 6 3 2 1 5 4 3 2 3 1 1 6 2 4 1 2 4 3 4 4 2 4 12 7 5 7 11 12 16 15 10 9
9 3 2 4 13 3 4 4 5 4 1 2 3 2 3 2 4 4 2 3 3 3 5 2 4 4 2 2 1 3 1 3 1 5 3 4 8 9 19 26 18 17 16 13 15
2 2 3 7 13 4 4 4 2 0 3 1 3 1 2 4 3 4 2 3 2 1 3 4 3 3 3 3 3 2 1 2 2 3 5 6 6 9 12 17 14 13 14 12 8
2 2 2 6 4 3 2 5 3 2 3 3 3 3 6 2 3 3 4 5 3 2 4 3 4 4 2 3 2 2 1 3 2 2 4 5 3 6 9 10 13 15 15 15 11
1 2 1 3 1 1 2 3 3 4 2 3 2 4 4 2 3 4 6 5 2 5 4 3 4 4 6 5 5 1 4 4 2 6 3 4 7 4 19 15 14 14 17 18 10
1 1 2 1 1 2 4 5 4 4 4 4 5 8 4 3 2 5 4 5 5 5 5 4 0 3 9 6 5 4 2 3 2 3 10 5 6 10 19 15 16 18 17 16 17
2 2 1 1 1 2 3 5 4 4 4 5 4 4 3 5 7 5 4 3 3 6 10 6 4 6 6 7 3 3 3 3 2 5 8 12 21 26 12 18 20 20 19 16 15
2 3 3 3 6 8 4 2 3 4 5 7 4 11 8 5 3 9 11 11 10 6 3 4 5 5 5 6 5 9 10 8 10 14 9 19 19 21 14 14 13 15 17 18 19
3 2 2 1 3 5 6 5 7 8 5 6 11 11 14 11 9 6 5 4 7 2 6 1 3 3 4 10 11 14 15 15 16 15 17 14 10 12 12 12 14 14 19 19 19
1 1 3 3 3 4 5 7 7 4 8 11 10 11 9 21 14 16 5 4 5 5 5 4 4 2 4 2 7 9 6 6 2 1 3 3 5 9 13 15 8 14 18 18 16
Wind_Direction
308 306 299 293 288 286 286 284 279 275 270 269 265 262 271 289 305 303 262 227 207 245 271 269 273 262 239 229 215 180 240 241 236 236 227 277 229 205 216 229 283 193 205 296 135
302 299 298 299 297 294 291 288 286 282 277 270 264 255 254 289 306 285 253 246 234 253 242 249 269 262 241 218 217 217 231 236 238 236 250 227 236 326 290 279 275 310 13 128 150
304 303 301 301 299 297 295 293 288 285 284 282 274 257 210 340 291 250 201 190 236 308 308 247 252 222 228 249 209 225 236 238 237 240 258 263 251 251 240 259 232 256 124 168 178
308 305 302 300 299 296 297 302 296 291 290 290 283 281 139 156 284 154 175 186 25 334 313 281 201 210 251 223 230 262 246 245 258 253 273 237 247 254 251 251 258 218 173 170 198
310 309 306 310 320 322 309 312 309 296 295 294 289 187 130 196 234 319 308 316 348 347 249 232 236 232 242 221 235 243 250 265 252 250 260 264 256 259 266 258 263 266 178 182 200
317 318 318 325 318 324 318 314 312 306 301 294 299 148 155 230 240 281 301 324 315 289 260 223 245 309 287 257 258 286 267 258 262 267 255 259 268 256 251 240 262 258 234 210 203
328 327 324 322 322 320 320 320 317 310 297 288 287 155 192 229 178 313 304 287 280 271 268 252 234 207 334 296 324 277 282 283 266 257 259 277 260 240 250 251 258 241 247 213 210
325 323 320 318 320 318 322 320 338 328 318 307 166 114 244 251 300 299 292 282 260 254 238 247 238 239 247 284 301 288 279 256 263 249 248 230 259 252 240 233 248 240 221 224 213
323 319 314 313 317 316 321 346 40 55 67 77 66 65 280 309 256 279 172 257 309 330 299 248 179 213 251 232 270 228 271 270 285 246 236 202 253 255 244 253 246 242 204 216 217
320 313 307 307 313 314 310 321 79 78 92 95 106 33 357 18 360 332 24 333 309 34 355 325 253 224 201 205 241 258 253 253 262 307 322 279 258 263 277 252 248 246 216 213 218
318 312 307 304 319 333 357 299 340 328 2 345 346 278 10 335 337 272 267 332 337 91 274 272 281 255 220 208 241 266 282 283 296 295 313 305 313 296 303 282 290 262 245 217 222
328 319 308 307 319 349 42 354 62 109 320 317 303 274 285 317 302 289 179 201 189 240 231 242 249 252 232 226 236 251 260 275 279 295 320 287 280 278 251 272 271 288 270 244 208
334 334 328 66 80 44 85 149 288 306 327 308 254 262 273 128 241 275 144 173 228 239 199 203 258 327 239 240 255 252 269 283 275 302 293 263 275 262 240 238 250 259 258 263 222
0 7 37 131 66 330 17 35 22 351 34 318 302 293 170 184 270 225 216 188 275 264 213 234 262 305 330 267 265 281 261 321 357 5 287 68 294 286 262 246 234 243 241 237 242
18 40 49 49 131 28 344 36 0 10 25 257 246 169 344 227 295 311 199 189 251 255 29 265 292 311 313 256 60 240 349 322 303 272 248 252 251 282 244 240 242 246 249 244 244
8 3 346 17 45 18 19 1 24 42 280 321 32 325 349 282 269 295 245 183 249 268 227 242 289 266 238 290 278 307 316 318 279 193 250 265 242 221 247 242 257 254 247 233 240
27 25 28 2 25 6 347 14 26 95 3 336 328 0 340 275 295 309 316 293 240 353 338 319 243 315 347 356 351 51 50 351 7 33 231 357 297 250 264 258 254 260 260 248 234
39 30 47 57 2 349 30 44 66 242 236 14 334 304 266 324 351 339 323 286 288 148 57 178 334 65 352 231 283 306 133 150 242 241 260 325 264 253 284 289 287 278 278 277 245
3 4 20 332 345 15 51 40 209 229 306 340 299 306 309 323 189 335 260 242 243 158 172 100 274 319 109 307 87 310 258 223 206 265 279 231 283 297 265 275 287 293 271 268 259
62 19 313 340 338 37 67 254 243 95 104 28 234 191 264 293 342 44 292 236 216 164 145 196 330 285 296 2 30 205 243 35 359 324 293 272 260 250 289 301 345 356 349 356 336
73 335 358 3 357 45 154 237 278 215 147 183 254 261 234 278 188 213 256 288 205 192 75 123 122 260 241 199 187 323 68 37 97 198 285 315 296 37 48 12 358 343 341 326 316
102 304 65 26 3 79 239 228 278 218 157 226 248 240 226 244 281 240 238 235 186 151 188 188 155 282 219 258 249 178 161 104 131 307 255 248 253 297 356 347 352 346 351 337 323
169 301 64 3 234 230 274 276 254 201 192 200 239 216 204 236 240 221 256 262 208 167 181 198 338 353 343 359 1 67 96 149 190 204 242 258 274 312 321 344 347 332 342 343 338
119 282 171 197 282 239 252 250 246 212 237 207 250 203 202 233 228 262 234 269 235 204 232 157 177 173 204 210 150 319 246 204 216 256 280 262 284 294 342 341 340 335 339 336 341
161 241 184 204 228 220 190 231 234 249 214 204 240 220 205 239 223 234 247 256 280 265 186 147 216 198 244 254 212 251 261 247 233 243 242 279 285 295 342 325 324 332 342 341 345
167 198 171 228 190 195 211 208 219 249 203 215 230 237 216 231 207 206 201 180 219 45 168 29 254 201 274 233 240 266 265 265 260 255 259 263 288 354 325 322 337 355 348 345 339
160 34 143 223 192 182 207 214 229 180 239 234 232 253 226 236 234 246 233 186 246 188 173 145 146 108 265 17 307 286 237 286 270 114 260 255 252 311 326 345 43 356 355 340 328